| time (UTC) | temp F | wind direction | speed knots | gust knots | rain 1hr in | rain 24hr in | rain mn in | humidity % | barometer mb |
| 20260507031053 | 62 | 0 | 0.0 | 0.0 | 0.00 | 0.03 | 0.03 | 93 | 1008.7 |
| 20260507030553 | 63 | 0 | 0.0 | 0.0 | 0.00 | 0.03 | 0.03 | 93 | 1008.9 |
| 20260507030109 | 63 | 0 | 0.0 | 0.0 | 0.00 | 0.03 | 0.03 | 93 | 1008.9 |
| 20260507025556 | 63 | 0 | 0.0 | 0.0 | 0.00 | 0.03 | 0.03 | 93 | 1008.7 |
| 20260507025054 | 63 | 0 | 0.0 | 0.0 | 0.00 | 0.03 | 0.03 | 93 | 1008.7 |
| 20260507024614 | 63 | 0 | 0.0 | 0.0 | 0.00 | 0.03 | 0.03 | 93 | 1008.7 |
| 20260507024054 | 63 | 0 | 0.0 | 0.0 | 0.00 | 0.03 | 0.03 | 92 | 1008.7 |
| 20260507023554 | 63 | 0 | 0.0 | 0.0 | 0.00 | 0.03 | 0.03 | 92 | 1008.9 |
| 20260507023057 | 63 | 0 | 0.0 | 0.0 | 0.00 | 0.03 | 0.03 | 92 | 1009.0 |
| 20260507022554 | 63 | 0 | 0.0 | 0.0 | 0.00 | 0.03 | 0.03 | 92 | 1008.8 |
| 20260507022054 | 63 | 0 | 0.0 | 0.0 | 0.00 | 0.03 | 0.03 | 92 | 1008.9 |
| 20260507021605 | 63 | 0 | 0.0 | 0.0 | 0.00 | 0.03 | 0.03 | 92 | 1009.0 |
| 20260507021057 | 63 | 0 | 0.0 | 0.0 | 0.00 | 0.03 | 0.03 | 92 | 1009.1 |
| 20260507020554 | 63 | 0 | 0.0 | 0.0 | 0.00 | 0.03 | 0.03 | 92 | 1009.3 |
| 20260507020104 | 63 | 0 | 0.0 | 0.0 | 0.00 | 0.03 | 0.03 | 91 | 1009.5 |
| 20260507015552 | 63 | 0 | 0.0 | 0.0 | 0.00 | 0.03 | 0.03 | 91 | 1009.8 |
| 20260507015055 | 64 | 0 | 0.0 | 0.0 | 0.00 | 0.03 | 0.03 | 91 | 1009.8 |
| 20260507014606 | 64 | 0 | 0.0 | 0.0 | 0.00 | 0.03 | 0.03 | 91 | 1009.7 |
| 20260507014054 | 64 | 0 | 0.0 | 0.0 | 0.00 | 0.03 | 0.03 | 90 | 1009.8 |
| 20260507013556 | 64 | 0 | 0.0 | 0.0 | 0.00 | 0.03 | 0.03 | 90 | 1009.6 |
| 20260507013103 | 64 | 0 | 0.0 | 0.0 | 0.00 | 0.03 | 0.03 | 90 | 1009.4 |
| 20260507012555 | 64 | 0 | 0.0 | 0.0 | 0.00 | 0.03 | 0.03 | 90 | 1009.3 |
| 20260507012053 | 65 | 0 | 0.0 | 0.0 | 0.00 | 0.03 | 0.03 | 89 | 1009.3 |
| 20260507011559 | 65 | 0 | 0.0 | 0.0 | 0.00 | 0.03 | 0.03 | 89 | 1009.4 |
| 20260507011054 | 65 | 0 | 0.0 | 0.0 | 0.00 | 0.03 | 0.03 | 89 | 1009.4 |
| 20260507010554 | 65 | 0 | 0.0 | 0.0 | 0.00 | 0.03 | 0.03 | 89 | 1009.3 |
| 20260507010059 | 65 | 0 | 0.0 | 0.0 | 0.00 | 0.03 | 0.03 | 88 | 1009.3 |
| 20260507005554 | 65 | 0 | 0.0 | 0.0 | 0.00 | 0.03 | 0.03 | 88 | 1009.4 |
| 20260507005053 | 66 | 0 | 0.0 | 0.0 | 0.00 | 0.03 | 0.03 | 88 | 1009.3 |
| 20260507004558 | 66 | 0 | 0.0 | 0.0 | 0.00 | 0.03 | 0.03 | 88 | 1009.3 |
| 20260507004053 | 66 | 0 | 0.0 | 0.0 | 0.00 | 0.03 | 0.03 | 87 | 1009.4 |
| 20260507003553 | 66 | 0 | 0.0 | 0.0 | 0.00 | 0.03 | 0.03 | 87 | 1009.5 |
| 20260507003113 | 66 | 0 | 0.0 | 0.0 | 0.00 | 0.03 | 0.03 | 86 | 1009.3 |
| 20260507002558 | 66 | 0 | 0.0 | 0.0 | 0.00 | 0.03 | 0.03 | 86 | 1009.3 |
| 20260507002057 | 67 | 0 | 0.0 | 0.0 | 0.00 | 0.03 | 0.03 | 86 | 1009.2 |
| 20260507001556 | 67 | 0 | 0.0 | 0.0 | 0.00 | 0.03 | 0.03 | 86 | 1009.1 |
| 20260507001059 | 67 | 0 | 0.0 | 0.0 | 0.00 | 0.03 | 0.03 | 86 | 1008.9 |
| 20260507000557 | 67 | 0 | 0.0 | 0.0 | 0.00 | 0.03 | 0.03 | 85 | 1008.8 |
| 20260507000056 | 67 | 0 | 0.0 | 0.0 | 0.00 | 0.03 | 0.03 | 85 | 1008.9 |
| 20260506235553 | 68 | 0 | 0.0 | 0.0 | 0.00 | 0.03 | 0.03 | 84 | 1008.9 |
| 20260506235054 | 68 | 0 | 0.0 | 0.0 | 0.00 | 0.03 | 0.03 | 84 | 1008.8 |
| 20260506234605 | 68 | 0 | 0.0 | 0.9 | 0.00 | 0.03 | 0.03 | 84 | 1008.7 |
| 20260506234053 | 68 | 0 | 0.0 | 0.9 | 0.00 | 0.03 | 0.03 | 84 | 1008.7 |
| 20260506233553 | 68 | 0 | 0.0 | 1.7 | 0.00 | 0.03 | 0.03 | 83 | 1008.8 |
| 20260506233058 | 68 | 0 | 0.0 | 1.7 | 0.00 | 0.03 | 0.03 | 83 | 1008.9 |
| 20260506232552 | 69 | 312 | 0.0 | 1.7 | 0.00 | 0.03 | 0.03 | 83 | 1008.9 |
| 20260506232055 | 69 | 318 | 0.9 | 1.7 | 0.00 | 0.03 | 0.03 | 83 | 1008.8 |
| 20260506231556 | 69 | 318 | 0.9 | 2.6 | 0.00 | 0.03 | 0.03 | 83 | 1008.8 |
| 20260506231056 | 69 | 0 | 0.9 | 2.6 | 0.00 | 0.03 | 0.03 | 82 | 1008.7 |
| 20260506230552 | 69 | 318 | 0.0 | 2.6 | 0.00 | 0.03 | 0.03 | 82 | 1008.8 |
| 20260506225555 | 69 | 326 | 0.0 | 1.7 | 0.00 | 0.03 | 0.03 | 82 | 1008.8 |
| 20260506225055 | 69 | 326 | 0.0 | 1.7 | 0.00 | 0.03 | 0.03 | 82 | 1008.7 |
| 20260506224559 | 69 | 326 | 0.0 | 2.6 | 0.00 | 0.03 | 0.03 | 82 | 1008.8 |
| 20260506224051 | 69 | 2 | 0.0 | 2.6 | 0.00 | 0.03 | 0.03 | 82 | 1008.7 |
| 20260506223555 | 69 | 325 | 0.0 | 3.5 | 0.00 | 0.03 | 0.03 | 82 | 1008.8 |
| 20260506223055 | 70 | 322 | 0.0 | 3.5 | 0.00 | 0.03 | 0.03 | 82 | 1008.7 |
| 20260506222555 | 70 | 234 | 0.0 | 3.5 | 0.00 | 0.03 | 0.03 | 82 | 1008.6 |
| 20260506222053 | 70 | 317 | 0.0 | 2.6 | 0.00 | 0.03 | 0.03 | 81 | 1008.7 |
| 20260506221553 | 70 | 317 | 0.0 | 2.6 | 0.00 | 0.03 | 0.03 | 81 | 1008.8 |
| 20260506221052 | 70 | 278 | 0.9 | 2.6 | 0.00 | 0.03 | 0.03 | 80 | 1008.9 |
| 20260506220553 | 70 | 316 | 0.9 | 3.5 | 0.00 | 0.03 | 0.03 | 81 | 1008.7 |
| 20260506220054 | 70 | 314 | 1.7 | 3.5 | 0.00 | 0.03 | 0.03 | 80 | 1008.7 |
| 20260506215552 | 70 | 319 | 0.9 | 3.5 | 0.00 | 0.03 | 0.03 | 80 | 1008.6 |
| 20260506215052 | 70 | 0 | 0.0 | 3.5 | 0.00 | 0.03 | 0.03 | 81 | 1008.6 |
| 20260506214559 | 70 | 322 | 0.9 | 3.5 | 0.00 | 0.03 | 0.03 | 80 | 1008.6 |
| 20260506214054 | 70 | 353 | 1.7 | 3.5 | 0.00 | 0.03 | 0.03 | 80 | 1008.6 |
| 20260506213553 | 70 | 257 | 0.9 | 3.5 | 0.00 | 0.03 | 0.03 | 80 | 1008.5 |
| 20260506213107 | 70 | 320 | 0.9 | 3.5 | 0.00 | 0.03 | 0.03 | 80 | 1008.2 |
| 20260506212555 | 70 | 320 | 0.9 | 7.0 | 0.00 | 0.03 | 0.03 | 81 | 1008.4 |
| 20260506212055 | 70 | 289 | 0.9 | 7.0 | 0.00 | 0.03 | 0.03 | 80 | 1008.5 |
| 20260506211554 | 70 | 352 | 0.9 | 3.5 | 0.00 | 0.03 | 0.03 | 80 | 1008.4 |
| 20260506211055 | 70 | 267 | 0.9 | 3.5 | 0.00 | 0.03 | 0.03 | 80 | 1008.2 |
| 20260506210555 | 70 | 29 | 0.9 | 2.6 | 0.00 | 0.03 | 0.03 | 80 | 1008.3 |
| 20260506210136 | 70 | 307 | 0.0 | 2.6 | 0.00 | 0.03 | 0.03 | 80 | 1008.3 |
| 20260506205554 | 70 | 240 | 0.9 | 3.5 | 0.00 | 0.03 | 0.03 | 80 | 1008.2 |
| 20260506205055 | 70 | 8 | 0.9 | 3.5 | 0.00 | 0.03 | 0.03 | 79 | 1008.2 |
| 20260506204556 | 70 | 11 | 0.9 | 7.0 | 0.00 | 0.03 | 0.03 | 80 | 1008.0 |
| 20260506204053 | 70 | 273 | 1.7 | 7.0 | 0.00 | 0.03 | 0.03 | 79 | 1008.0 |
| 20260506203552 | 71 | 311 | 0.9 | 5.2 | 0.00 | 0.03 | 0.03 | 80 | 1008.1 |
| 20260506203059 | 70 | 323 | 0.9 | 5.2 | 0.00 | 0.03 | 0.03 | 80 | 1008.0 |
| 20260506202552 | 70 | 329 | 0.9 | 5.2 | 0.00 | 0.03 | 0.03 | 79 | 1007.8 |
| 20260506202054 | 70 | 172 | 0.9 | 2.6 | 0.00 | 0.03 | 0.03 | 79 | 1008.0 |
| 20260506201556 | 70 | 330 | 0.9 | 3.5 | 0.00 | 0.03 | 0.03 | 80 | 1008.0 |
| 20260506201054 | 70 | 274 | 0.0 | 3.5 | 0.00 | 0.03 | 0.03 | 80 | 1008.1 |
| 20260506200552 | 70 | 319 | 0.0 | 2.6 | 0.00 | 0.03 | 0.03 | 80 | 1007.9 |
| 20260506200059 | 70 | 287 | 0.9 | 2.6 | 0.00 | 0.03 | 0.03 | 80 | 1008.1 |
| 20260506195553 | 70 | 333 | 0.9 | 1.7 | 0.00 | 0.03 | 0.03 | 81 | 1008.2 |
| 20260506195054 | 70 | 246 | 0.9 | 2.6 | 0.00 | 0.03 | 0.03 | 80 | 1008.3 |
| 20260506194552 | 70 | 22 | 0.9 | 2.6 | 0.00 | 0.03 | 0.03 | 80 | 1008.3 |
| 20260506194052 | 70 | 315 | 0.9 | 2.6 | 0.00 | 0.03 | 0.03 | 81 | 1008.3 |
| 20260506193558 | 70 | 297 | 0.9 | 2.6 | 0.00 | 0.03 | 0.03 | 81 | 1008.4 |
| 20260506193054 | 69 | 326 | 0.9 | 2.6 | 0.00 | 0.03 | 0.03 | 80 | 1008.4 |
| 20260506192552 | 69 | 63 | 0.9 | 2.6 | 0.00 | 0.03 | 0.03 | 80 | 1008.4 |
| 20260506192054 | 69 | 322 | 0.9 | 4.3 | 0.00 | 0.03 | 0.03 | 80 | 1008.4 |
| 20260506191555 | 70 | 68 | 0.9 | 4.3 | 0.00 | 0.03 | 0.03 | 80 | 1008.5 |
| 20260506191054 | 70 | 229 | 0.9 | 3.5 | 0.00 | 0.03 | 0.03 | 80 | 1008.6 |
| 20260506190557 | 70 | 40 | 0.9 | 3.5 | 0.00 | 0.03 | 0.03 | 80 | 1008.5 |
| 20260506190058 | 70 | 177 | 0.0 | 4.3 | 0.00 | 0.03 | 0.03 | 80 | 1008.5 |
| 20260506185553 | 70 | 219 | 1.7 | 4.3 | 0.00 | 0.03 | 0.03 | 81 | 1008.8 |
| 20260506185053 | 69 | 155 | 0.9 | 5.2 | 0.00 | 0.03 | 0.03 | 81 | 1008.8 |
| 20260506184554 | 69 | 312 | 0.9 | 5.2 | 0.00 | 0.03 | 0.03 | 81 | 1008.7 |
| 20260506184053 | 68 | 299 | 1.7 | 5.2 | 0.00 | 0.03 | 0.03 | 81 | 1008.8 |
| 20260506183555 | 68 | 89 | 0.9 | 4.3 | 0.00 | 0.03 | 0.03 | 82 | 1009.0 |
| 20260506183054 | 68 | 248 | 0.9 | 3.5 | 0.00 | 0.03 | 0.03 | 82 | 1008.9 |
| 20260506182552 | 68 | 115 | 0.9 | 4.3 | 0.00 | 0.03 | 0.03 | 82 | 1009.0 |
| 20260506182055 | 68 | 238 | 0.9 | 4.3 | 0.00 | 0.03 | 0.03 | 83 | 1009.0 |
| 20260506181555 | 68 | 140 | 1.7 | 7.8 | 0.00 | 0.03 | 0.03 | 83 | 1009.1 |
| 20260506181055 | 68 | 48 | 1.7 | 7.8 | 0.00 | 0.03 | 0.03 | 84 | 1009.3 |
| 20260506180556 | 68 | 276 | 0.9 | 5.2 | 0.00 | 0.03 | 0.03 | 84 | 1009.4 |
| 20260506180054 | 68 | 181 | 0.9 | 5.2 | 0.00 | 0.03 | 0.03 | 84 | 1009.5 |
| 20260506175552 | 68 | 271 | 0.9 | 4.3 | 0.00 | 0.03 | 0.03 | 84 | 1009.3 |
| 20260506175053 | 67 | 69 | 1.7 | 5.2 | 0.00 | 0.03 | 0.03 | 85 | 1009.4 |
| 20260506174558 | 67 | 271 | 1.7 | 5.2 | 0.00 | 0.03 | 0.03 | 85 | 1009.4 |
| 20260506174056 | 67 | 218 | 1.7 | 7.0 | 0.00 | 0.03 | 0.03 | 87 | 1009.3 |
| 20260506173553 | 67 | 81 | 1.7 | 7.0 | 0.00 | 0.03 | 0.03 | 88 | 1009.4 |
| 20260506173124 | 67 | 126 | 0.9 | 5.2 | 0.00 | 0.03 | 0.03 | 88 | 1009.3 |
| 20260506172552 | 66 | 153 | 0.9 | 5.2 | 0.00 | 0.03 | 0.03 | 89 | 1009.2 |
| 20260506172055 | 66 | 0 | 0.9 | 3.5 | 0.00 | 0.03 | 0.03 | 90 | 1009.3 |
| 20260506171610 | 65 | 214 | 0.0 | 2.6 | 0.00 | 0.03 | 0.03 | 90 | 1009.4 |
| 20260506171053 | 65 | 196 | 0.0 | 2.6 | 0.00 | 0.03 | 0.03 | 91 | 1009.5 |
| 20260506170552 | 65 | 101 | 0.9 | 2.6 | 0.00 | 0.03 | 0.03 | 90 | 1009.8 |
| 20260506170055 | 65 | 60 | 0.9 | 3.5 | 0.01 | 0.03 | 0.03 | 90 | 1009.8 |
| 20260506165553 | 65 | 136 | 0.9 | 3.5 | 0.02 | 0.03 | 0.03 | 90 | 1009.9 |
| 20260506165052 | 65 | 183 | 0.9 | 5.2 | 0.02 | 0.03 | 0.03 | 90 | 1009.9 |
| 20260506164606 | 65 | 171 | 1.7 | 5.2 | 0.02 | 0.03 | 0.03 | 90 | 1009.8 |
| 20260506164055 | 65 | 50 | 0.9 | 2.6 | 0.03 | 0.03 | 0.03 | 91 | 1009.8 |
| 20260506163552 | 64 | 93 | 0.9 | 6.1 | 0.03 | 0.03 | 0.03 | 92 | 1009.9 |
| 20260506163106 | 64 | 171 | 0.9 | 6.1 | 0.03 | 0.03 | 0.03 | 91 | 1009.8 |
| 20260506162552 | 64 | 136 | 0.9 | 6.1 | 0.03 | 0.03 | 0.03 | 90 | 1010.1 |
| 20260506162056 | 64 | 95 | 1.7 | 6.1 | 0.03 | 0.03 | 0.03 | 90 | 1010.3 |
| 20260506161636 | 65 | 131 | 0.9 | 6.1 | 0.03 | 0.03 | 0.03 | 90 | 1010.6 |
| 20260506161052 | 65 | 92 | 0.0 | 6.1 | 0.03 | 0.03 | 0.03 | 89 | 1010.9 |
| 20260506160555 | 66 | 228 | 1.7 | 6.1 | 0.03 | 0.03 | 0.03 | 86 | 1010.9 |
| 20260506160108 | 66 | 165 | 0.0 | 4.3 | 0.02 | 0.02 | 0.02 | 86 | 1011.1 |
| 20260506155552 | 67 | 102 | 0.0 | 4.3 | 0.01 | 0.01 | 0.01 | 84 | 1011.2 |
| 20260506155053 | 68 | 32 | 0.9 | 7.0 | 0.01 | 0.01 | 0.01 | 82 | 1011.4 |
| 20260506154600 | 68 | 205 | 0.9 | 7.0 | 0.01 | 0.01 | 0.01 | 81 | 1011.3 |
| 20260506154053 | 69 | 12 | 0.9 | 7.0 | 0.00 | 0.00 | 0.00 | 79 | 1011.3 |
| 20260506153553 | 69 | 157 | 0.0 | 2.6 | 0.00 | 0.00 | 0.00 | 78 | 1011.2 |
| 20260506153108 | 69 | 330 | 0.9 | 4.3 | 0.00 | 0.00 | 0.00 | 77 | 1011.1 |
| 20260506152552 | 69 | 309 | 0.9 | 4.3 | 0.00 | 0.00 | 0.00 | 78 | 1011.1 |
| 20260506152058 | 69 | 239 | 0.0 | 1.7 | 0.00 | 0.00 | 0.00 | 77 | 1011.2 |
| 20260506151607 | 69 | 36 | 0.0 | 1.7 | 0.00 | 0.00 | 0.00 | 78 | 1011.2 |
| 20260506151053 | 69 | 167 | 0.9 | 1.7 | 0.00 | 0.00 | 0.00 | 77 | 1011.2 |
| 20260506150553 | 69 | 268 | 0.0 | 1.7 | 0.00 | 0.00 | 0.00 | 76 | 1011.1 |
| 20260506150057 | 70 | 231 | 0.0 | 2.6 | 0.00 | 0.00 | 0.00 | 75 | 1011.1 |
| 20260506145556 | 70 | 26 | 0.9 | 6.1 | 0.00 | 0.00 | 0.00 | 74 | 1011.1 |
| 20260506145055 | 70 | 34 | 0.9 | 6.1 | 0.00 | 0.00 | 0.00 | 71 | 1011.2 |
| 20260506144556 | 71 | 317 | 1.7 | 5.2 | 0.00 | 0.00 | 0.00 | 71 | 1011.1 |
| 20260506144054 | 71 | 286 | 0.9 | 5.2 | 0.00 | 0.00 | 0.00 | 70 | 1011.1 |
| 20260506143555 | 71 | 278 | 0.9 | 5.2 | 0.00 | 0.00 | 0.00 | 70 | 1011.1 |
| 20260506143054 | 71 | 303 | 0.9 | 1.7 | 0.00 | 0.00 | 0.00 | 70 | 1011.1 |
| 20260506142556 | 71 | 290 | 0.0 | 1.7 | 0.00 | 0.00 | 0.00 | 71 | 1011.0 |
| 20260506142059 | 71 | 0 | 0.0 | 1.7 | 0.00 | 0.00 | 0.00 | 70 | 1011.1 |
| 20260506141556 | 71 | 0 | 0.0 | 3.5 | 0.00 | 0.00 | 0.00 | 71 | 1011.0 |
| 20260506141055 | 70 | 149 | 0.9 | 3.5 | 0.00 | 0.00 | 0.00 | 72 | 1011.0 |
| 20260506140555 | 70 | 227 | 0.9 | 3.5 | 0.00 | 0.00 | 0.00 | 72 | 1011.0 |
| 20260506140056 | 70 | 133 | 0.9 | 3.5 | 0.00 | 0.00 | 0.00 | 70 | 1010.9 |
| 20260506135555 | 70 | 53 | 0.9 | 3.5 | 0.00 | 0.00 | 0.00 | 72 | 1011.0 |
| 20260506135052 | 70 | 155 | 0.9 | 3.5 | 0.00 | 0.00 | 0.00 | 73 | 1011.0 |
| 20260506134555 | 69 | 48 | 0.0 | 3.5 | 0.00 | 0.00 | 0.00 | 73 | 1011.0 |
| 20260506134055 | 69 | 150 | 0.9 | 7.8 | 0.00 | 0.00 | 0.00 | 73 | 1011.1 |
| 20260506133553 | 69 | 248 | 0.9 | 7.8 | 0.00 | 0.00 | 0.00 | 74 | 1011.0 |
| 20260506133057 | 68 | 103 | 0.9 | 7.0 | 0.00 | 0.00 | 0.00 | 74 | 1011.1 |
| 20260506132554 | 69 | 344 | 2.6 | 7.0 | 0.00 | 0.00 | 0.00 | 73 | 1011.0 |
| 20260506132054 | 69 | 152 | 0.9 | 4.3 | 0.00 | 0.00 | 0.00 | 73 | 1011.1 |
| 20260506131602 | 69 | 174 | 0.9 | 4.3 | 0.00 | 0.00 | 0.00 | 74 | 1011.2 |
| 20260506131054 | 68 | 159 | 0.9 | 5.2 | 0.00 | 0.00 | 0.00 | 75 | 1011.1 |
| 20260506130554 | 68 | 193 | 0.9 | 5.2 | 0.00 | 0.00 | 0.00 | 75 | 1011.2 |
| 20260506130126 | 68 | 53 | 0.0 | 4.3 | 0.00 | 0.00 | 0.00 | 75 | 1011.1 |
| 20260506125554 | 67 | 43 | 0.0 | 4.3 | 0.00 | 0.00 | 0.00 | 76 | 1011.3 |
| 20260506125056 | 67 | 62 | 0.9 | 3.5 | 0.00 | 0.00 | 0.00 | 76 | 1011.3 |
| 20260506124600 | 67 | 188 | 0.9 | 2.6 | 0.00 | 0.00 | 0.00 | 76 | 1011.4 |
| 20260506124054 | 67 | 160 | 0.9 | 3.5 | 0.00 | 0.00 | 0.00 | 76 | 1011.5 |
| 20260506123553 | 66 | 224 | 0.9 | 4.3 | 0.00 | 0.00 | 0.00 | 76 | 1011.5 |
| 20260506123054 | 66 | 145 | 0.9 | 4.3 | 0.00 | 0.00 | 0.00 | 77 | 1011.4 |
| 20260506122554 | 66 | 146 | 0.9 | 5.2 | 0.00 | 0.00 | 0.00 | 77 | 1011.5 |
| 20260506122053 | 66 | 27 | 0.9 | 5.2 | 0.00 | 0.00 | 0.00 | 77 | 1011.5 |
| 20260506121554 | 66 | 227 | 0.0 | 2.6 | 0.00 | 0.00 | 0.00 | 77 | 1011.6 |
| 20260506121058 | 65 | 231 | 0.9 | 3.5 | 0.00 | 0.00 | 0.00 | 77 | 1011.6 |
| 20260506120554 | 65 | 131 | 0.9 | 3.5 | 0.00 | 0.00 | 0.00 | 78 | 1011.4 |
| 20260506120106 | 65 | 232 | 0.9 | 2.6 | 0.00 | 0.00 | 0.00 | 78 | 1011.5 |
| 20260506115555 | 65 | 65 | 0.0 | 4.3 | 0.00 | 0.00 | 0.00 | 78 | 1011.5 |
| 20260506115054 | 65 | 122 | 0.0 | 4.3 | 0.00 | 0.00 | 0.00 | 78 | 1011.4 |
| 20260506114556 | 65 | 265 | 0.9 | 3.5 | 0.00 | 0.00 | 0.00 | 78 | 1011.3 |
| 20260506114054 | 65 | 220 | 0.9 | 3.5 | 0.00 | 0.00 | 0.00 | 78 | 1011.3 |
| 20260506113553 | 65 | 50 | 0.9 | 3.5 | 0.00 | 0.00 | 0.00 | 78 | 1011.3 |
| 20260506113100 | 65 | 115 | 0.0 | 3.5 | 0.00 | 0.00 | 0.00 | 78 | 1011.3 |
| 20260506112555 | 65 | 243 | 0.0 | 3.5 | 0.00 | 0.00 | 0.00 | 78 | 1011.3 |
| 20260506112054 | 64 | 163 | 0.9 | 3.5 | 0.00 | 0.00 | 0.00 | 79 | 1011.2 |
| 20260506111554 | 64 | 67 | 0.9 | 3.5 | 0.00 | 0.00 | 0.00 | 79 | 1011.2 |
| 20260506111054 | 64 | 207 | 0.9 | 5.2 | 0.00 | 0.00 | 0.00 | 79 | 1011.2 |
| 20260506110553 | 64 | 197 | 1.7 | 5.2 | 0.00 | 0.00 | 0.00 | 79 | 1011.2 |
| 20260506110106 | 64 | 212 | 0.9 | 3.5 | 0.00 | 0.00 | 0.00 | 79 | 1011.3 |
| 20260506105553 | 64 | 170 | 0.9 | 2.6 | 0.00 | 0.00 | 0.00 | 80 | 1011.2 |
| 20260506105053 | 63 | 66 | 0.9 | 3.5 | 0.00 | 0.00 | 0.00 | 80 | 1011.2 |
| 20260506104559 | 63 | 232 | 0.9 | 3.5 | 0.00 | 0.00 | 0.00 | 80 | 1011.1 |
| 20260506104052 | 63 | 109 | 0.9 | 3.5 | 0.00 | 0.00 | 0.00 | 81 | 1011.0 |
| 20260506103552 | 63 | 160 | 0.9 | 3.5 | 0.00 | 0.00 | 0.00 | 81 | 1011.1 |
| 20260506103100 | 63 | 166 | 0.0 | 2.6 | 0.00 | 0.00 | 0.00 | 81 | 1011.2 |
| 20260506102553 | 63 | 180 | 0.9 | 2.6 | 0.00 | 0.00 | 0.00 | 81 | 1011.2 |
| 20260506102053 | 63 | 172 | 0.0 | 2.6 | 0.00 | 0.00 | 0.00 | 81 | 1011.3 |
| 20260506101620 | 63 | 130 | 0.9 | 2.6 | 0.00 | 0.00 | 0.00 | 82 | 1011.2 |
| 20260506101053 | 63 | 148 | 0.0 | 1.7 | 0.00 | 0.00 | 0.00 | 82 | 1011.3 |
| 20260506100553 | 63 | 142 | 0.0 | 1.7 | 0.00 | 0.00 | 0.00 | 82 | 1011.2 |
| 20260506100119 | 63 | 169 | 0.9 | 2.6 | 0.00 | 0.00 | 0.00 | 82 | 1011.3 |
| 20260506095556 | 63 | 203 | 0.9 | 2.6 | 0.00 | 0.00 | 0.00 | 82 | 1011.3 |
| 20260506095053 | 63 | 127 | 0.0 | 3.5 | 0.00 | 0.00 | 0.00 | 82 | 1011.1 |
| 20260506094553 | 63 | 223 | 0.0 | 4.3 | 0.00 | 0.00 | 0.00 | 82 | 1011.1 |
| 20260506094052 | 63 | 217 | 0.9 | 4.3 | 0.00 | 0.00 | 0.00 | 81 | 1010.9 |
| 20260506093552 | 63 | 70 | 0.9 | 4.3 | 0.00 | 0.00 | 0.00 | 82 | 1010.9 |
| 20260506093100 | 63 | 151 | 0.9 | 4.3 | 0.00 | 0.00 | 0.00 | 82 | 1011.0 |
| 20260506092553 | 63 | 340 | 0.9 | 4.3 | 0.00 | 0.00 | 0.00 | 82 | 1010.9 |
| 20260506092053 | 63 | 238 | 0.0 | 3.5 | 0.00 | 0.00 | 0.00 | 82 | 1011.1 |
| 20260506091555 | 63 | 169 | 0.9 | 4.3 | 0.00 | 0.00 | 0.00 | 82 | 1011.1 |
| 20260506091055 | 63 | 155 | 0.9 | 4.3 | 0.00 | 0.00 | 0.00 | 82 | 1011.0 |
| 20260506090552 | 64 | 172 | 0.9 | 3.5 | 0.00 | 0.00 | 0.00 | 81 | 1011.0 |
| 20260506090058 | 64 | 143 | 0.9 | 4.3 | 0.00 | 0.00 | 0.00 | 81 | 1011.1 |
| 20260506085555 | 64 | 113 | 0.9 | 6.1 | 0.00 | 0.00 | 0.00 | 81 | 1011.1 |
| 20260506085057 | 64 | 227 | 1.7 | 6.1 | 0.00 | 0.00 | 0.00 | 81 | 1011.0 |
| 20260506084621 | 64 | 158 | 0.9 | 4.3 | 0.00 | 0.00 | 0.00 | 81 | 1011.2 |
| 20260506084054 | 64 | 220 | 0.9 | 4.3 | 0.00 | 0.00 | 0.00 | 81 | 1011.1 |
| 20260506083555 | 64 | 155 | 0.9 | 4.3 | 0.00 | 0.00 | 0.00 | 81 | 1011.2 |
| 20260506083056 | 64 | 101 | 0.9 | 4.3 | 0.00 | 0.00 | 0.00 | 81 | 1011.3 |
| 20260506082555 | 64 | 176 | 0.9 | 4.3 | 0.00 | 0.00 | 0.00 | 82 | 1011.3 |
| 20260506082056 | 64 | 195 | 0.9 | 4.3 | 0.00 | 0.00 | 0.00 | 82 | 1011.4 |
| 20260506081557 | 64 | 189 | 0.9 | 4.3 | 0.00 | 0.00 | 0.00 | 82 | 1011.3 |
| 20260506081054 | 64 | 169 | 0.9 | 3.5 | 0.00 | 0.00 | 0.00 | 82 | 1011.4 |
| 20260506080555 | 64 | 188 | 0.9 | 2.6 | 0.00 | 0.00 | 0.00 | 82 | 1011.4 |
| 20260506073056 | 65 | 154 | 0.9 | 2.6 | 0.00 | 0.00 | 0.00 | 81 | 1011.4 |
| 20260506072554 | 65 | 232 | 0.9 | 6.1 | 0.00 | 0.00 | 0.00 | 80 | 1011.4 |
| 20260506072054 | 65 | 68 | 0.9 | 6.1 | 0.00 | 0.00 | 0.00 | 80 | 1011.4 |
| 20260506071559 | 65 | 226 | 0.9 | 3.5 | 0.00 | 0.00 | 0.00 | 80 | 1011.4 |
| 20260506071055 | 65 | 232 | 0.9 | 3.5 | 0.00 | 0.00 | 0.00 | 80 | 1011.4 |
| 20260506070553 | 66 | 0 | 0.9 | 3.5 | 0.00 | 0.00 | 0.00 | 80 | 1011.4 |
| 20260506062053 | 66 | 152 | 0.9 | 4.3 | 0.00 | 0.00 | 0.00 | 79 | 1011.5 |
| 20260506061554 | 67 | 125 | 0.0 | 3.5 | 0.00 | 0.00 | 0.00 | 79 | 1011.5 |
| 20260506061056 | 67 | 210 | 0.9 | 4.3 | 0.00 | 0.00 | 0.00 | 79 | 1011.5 |
| 20260506060556 | 67 | 221 | 0.9 | 4.3 | 0.00 | 0.00 | 0.00 | 78 | 1011.5 |
| 20260506051052 | 68 | 0 | 0.9 | 2.6 | 0.00 | 0.00 | 0.00 | 76 | 1011.9 |
| 20260506050553 | 68 | 0 | 0.0 | 1.7 | 0.00 | 0.00 | 0.00 | 77 | 1011.9 |
| 20260506050103 | 68 | 144 | 0.9 | 2.6 | 0.00 | 0.00 | 0.00 | 76 | 1012.0 |
| 20260506045052 | 69 | 53 | 0.0 | 4.3 | 0.00 | 0.00 | 0.00 | 76 | 1012.0 |
| 20260506044704 | 69 | 164 | 0.9 | 4.3 | 0.00 | 0.00 | 0.00 | 76 | 1012.0 |
| 20260506044053 | 68 | 152 | 0.0 | 2.6 | 0.00 | 0.00 | 0.00 | 76 | 1012.1 |
| 20260506043556 | 68 | 178 | 0.0 | 4.3 | 0.00 | 0.00 | 0.00 | 76 | 1012.1 |
| 20260506043108 | 68 | 168 | 0.9 | 4.3 | 0.00 | 0.00 | 0.00 | 77 | 1012.1 |
| 20260506042552 | 68 | 167 | 0.0 | 3.5 | 0.00 | 0.00 | 0.00 | 77 | 1012.0 |
| 20260506042051 | 68 | 145 | 0.9 | 3.5 | 0.00 | 0.00 | 0.00 | 77 | 1012.0 |
| 20260506041605 | 68 | 0 | 0.0 | 2.6 | 0.00 | 0.00 | 0.00 | 77 | 1012.0 |
| 20260506041053 | 68 | 0 | 0.9 | 2.6 | 0.00 | 0.00 | 0.00 | 77 | 1011.9 |
| 20260506040552 | 68 | 143 | 0.9 | 1.7 | 0.00 | 0.00 | 0.00 | 77 | 1011.9 |
| 20260506040057 | 68 | 166 | 0.9 | 2.6 | 0.00 | 0.00 | 0.00 | 77 | 1011.9 |
| 20260506035553 | 68 | 154 | 0.9 | 2.6 | 0.00 | 0.00 | 0.00 | 77 | 1012.0 |
| 20260506035053 | 68 | 141 | 0.0 | 2.6 | 0.00 | 0.00 | 0.00 | 77 | 1011.9 |
| 20260506034624 | 68 | 162 | 0.0 | 3.5 | 0.00 | 0.00 | 0.00 | 77 | 1011.9 |
| 20260506034050 | 68 | 155 | 0.0 | 3.5 | 0.00 | 0.00 | 0.00 | 77 | 1011.9 |
| 20260506033551 | 68 | 198 | 0.9 | 2.6 | 0.00 | 0.00 | 0.00 | 76 | 1011.9 |
| 20260506033104 | 69 | 158 | 0.9 | 5.2 | 0.00 | 0.00 | 0.00 | 76 | 1011.8 |
| 20260506032551 | 69 | 129 | 0.9 | 5.2 | 0.00 | 0.00 | 0.00 | 76 | 1011.9 |
| 20260506032051 | 69 | 0 | 0.9 | 5.2 | 0.00 | 0.00 | 0.00 | 76 | 1011.8 |
| 20260506031553 | 69 | 125 | 0.9 | 2.6 | 0.00 | 0.00 | 0.00 | 76 | 1011.8 |